Location: Bodest
(46.3000°N, 22.5667°E)
Time: 23:46:08
(UTC+00:00)

USA 215 - Pass Details

Date: 16 October 2021
Orbit: 1099 x 1109 km, 123.0° (Epoch: 20 November)

Event Time Altitude Azimuth Distance (km) Brightness Sun altitude
Exits shadow 16:07:34 - 55° (NE) 3,733 5.5 -5.3°
Reaches altitude 10° 16:09:38 10° 50° (NE) 2,965 5.0 -5.6°
Maximum altitude 16:15:47 46° 341° (NNW) 1,455 4.1 -6.7°
Drops below altitude 10° 16:21:57 10° 270° (W) 2,965 7.3 -7.7°
Sets 16:24:31 0° 265° (W) 3,923 8.8 -8.2°
